CZ-6A DEB

Satellite information

Favourite Embed

Satellite Type and Status

DEBRISIN ORBIT

Key statistics

Satellite CZ-6A DEB at a glance.

Uptime

1128

Days in orbit

Revolutions

≈ 14.2

Per day

Orbit

SSO

Sun Synchronous Orbit

Inclination

98.8

Latest

Satellite identification and parameters

Extended collection of information and parameters for CZ-6A DEB.

Object identification

Identified? True

Debris? True

Object name: CZ-6A DEB

International designator: 2022-151ACB

Object number (NORAD): 56259

Object ID (CCSDS): 56259

Country: PEOPLES REPUBLIC OF CHINA (PRC)

Current information (Y/N): Y

RCS size: SMALL

Orbital parameters

Period: 101.67 minutes

Inclination: 98.8263 deg

SMA: 7215.862 km

Apoapsis: 872.485 km

Periapsis: 802.969 km

RAAN: 338.0026 deg

Eccentricy: 0.0048169

Argument of periapsis: 169.9318 deg

Mean anomaly: 190.2832 deg

Mean motion: 14.16349409 rev/day

Mean motion (dot): 0.00001916 rev/day2

B* drag term: 0.00097605 1/REarth

Two-line elements (TLE)

Creation date: Dec. 4, 2025, 9:16 p.m.

Reference frame: TEME

Reference center: EARTH

Epoch: Dec. 4, 2025, 5:54 a.m. UTC

TLE line 0: 0 CZ-6A DEB

TLE line 1: 1 56259U 22151ACB 25338.24640288 .00001916 00000-0 97605-3 0 9990

TLE line 2: 2 56259 98.8263 338.0026 0048169 169.9318 190.2832 14.16349409145491

Live tracking on map

Real-time ground track for satellite CZ-6A DEB.

In-orbit conjunctions

A list of the most updated potential collisions computed for object CZ-6A DEB.

Target Orbit TCA Probability of collision Miss distance Type
EXPLORER 30 LEO 2024-10-30 01:57:48 0.0007472547 152.0 (m) PAYLOAD

Associated space launch

Chinese satellite reported for atmospheric/ocean/environmental/spatial parameter research purposes, details TBD.

CZ-6A DEB was lifted into orbit during the mission ‘Long March 6A | Yunhai 3’, on board a Long March 6A space rocket.

The launch took place on Nov. 11, 2022, 10:52 p.m. from Launch Complex 9A.

For more information about the launch, click the button.

Launch to space Long March 6A | Yunhai 3
Long March 6A | Yunhai 3

Agency: N/A

Status: Launch Successful

Launch date: Nov. 11, 2022, 10:52 p.m. UTC

Rocket: Long March 6A

Launch pad: Launch Complex 9A

Location: Taiyuan Satellite Launch Center, People's Republic of China

...

Latest news about this satellite

There are no fresh news available about this satellite. Check back as we update our databases every day.


Newsletter sign-up

Weekly statistics, charts and insights to help you stay on top of the space industry.